Regional Weather Roundup
Issued by NWS Jackson, KY

Home | Current Version | Previous Version | Graphics & Text | Print | Product List | Glossary On
Versions: 1 2 3 4 5 6 7 8 9 10 11 12 13 14 15 16 17 18 19 20 21 22 23 24 25 26 27 28
000
ASUS43 KJKL 251210
RWRJKL

EAST KENTUCKY HOURLY WEATHER ROUNDUP
NATIONAL WEATHER SERVICE JACKSON KY
800 AM EDT SUN JUN 25 2017

NOTE: "FAIR" INDICATES FEW OR NO CLOUDS BELOW 12,000 FEET WITH
NO SIGNIFICANT WEATHER AND/OR OBSTRUCTIONS TO VISIBILITY.

* THESE REPORTS ARE NOT UNDER NWS QUALITY CONTROL AND MAY NOT
  REPORT WEATHER SUCH AS PRECIPITATION AND FOG.

KYZ079-080-083-085-087-088-110-112-115-119-120-251300
...EASTERN KENTUCKY...

CITY           SKY/WX    TMP DP  RH WIND       PRES   REMARKS
JACKSON        MOSUNNY   63  56  78 VRB3      30.20R
6HR MIN TEMP:  59; 6HR MAX TEMP:  66;

LONDON         SUNNY     61  57  87 CALM      30.21R
6HR MIN TEMP:  57; 6HR MAX TEMP:  64;

SOMERSET*      SUNNY     61  59  94 CALM      30.22S
MONTICELLO*    CLOUDY    62  59  90 N8        30.23R
6HR MIN TEMP:  56; 6HR MAX TEMP:  62;

WILLIAMSBURG*  SUNNY     59  59 100 CALM      30.21R
MIDDLESBORO*   MOSUNNY   60  59  97 CALM      30.21R
6HR MIN TEMP:  58; 6HR MAX TEMP:  61;

HARLAN APT*    CLOUDY    57  55  94 CALM      30.21R VSB 1/4
PIKE CO APT*     N/A     63  59  87 SW3       30.19R
BIG SANDY APT* CLOUDY    62  59  89 SW3       30.19R
6HR MIN TEMP:  61; 6HR MAX TEMP:  66;

MOREHEAD APT*  SUNNY     61  57  88 CALM      30.20R FOG
$$

KYZ035-036-041-042-044-050-067-078-099-251300
...CENTRAL KENTUCKY...

CITY           SKY/WX    TMP DP  RH WIND       PRES   REMARKS
MT STERLING*   SUNNY     61  55  82 CALM      30.20R
FLEMING/MASON* SUNNY     61  56  82 W5        30.18S
DANVILLE*      SUNNY     61  54  77 CALM      30.22R
LEXINGTON      SUNNY     61  55  81 W3        30.19R
6HR MIN TEMP:  56; 6HR MAX TEMP:  63;

FRANKFORT      SUNNY     60  54  80 SW3       30.18R
6HR MIN TEMP:  55; 6HR MAX TEMP:  63;

LOUISVILLE     MOSUNNY   63  55  75 SW5       30.18R
6HR MIN TEMP:  60; 6HR MAX TEMP:  65;

LEBANON*         N/A    N/A N/A N/A MISG        N/A
GLASGOW*       SUNNY     60  60 100 CALM      30.21S
BOWLING GREEN  SUNNY     63  58  83 CALM      30.21R
6HR MIN TEMP:  56; 6HR MAX TEMP:  64;

$$

KYZ091>093-OHZ055-061-077-WVZ005-015-034-035-042-251300
...SOUTHERN OHIO/WEST VIRGINIA...

CITY           SKY/WX    TMP DP  RH WIND       PRES   REMARKS
COVINGTON      SUNNY     61  53  75 SW5       30.16R
COLUMBUS       SUNNY     62  51  67 SW6       30.11R
DAYTON         SUNNY     61  49  64 SW9       30.13R
WILMINGTON     SUNNY     61  52  72 W9        30.14R
HUNTINGTON     SUNNY     62  57  83 SW5       30.16R
CHARLESTON     PTSUNNY   64  57  78 SW5       30.15R
PINEVILLE*     CLOUDY    62  61  97 MISG      30.23R
BECKLEY        CLOUDY    62  54  74 NW6       30.19R
BLUEFIELD      PTSUNNY   59  55  87 W6        30.21R
LOGAN CO APT*  CLOUDY    63  59  88 CALM      30.18R
$$

VAZ002-007-008-TNZ017-027-036-066-071-251300
...SOUTHWEST VIRGINIA/EAST TENNESSEE...

CITY           SKY/WX    TMP DP  RH WIND       PRES   REMARKS
WISE*          CLOUDY    61  54  77 CALM      30.23R
JONESVILLE*      N/A     63  59  88 CALM      30.21R
ABINGDON*      CLOUDY    66  58  75 N5        30.19R
BRISTOL        CLOUDY    66  62  87 CALM      30.18R
MORRISTOWN*    PTSUNNY   66  61  82 CALM      30.17R
SEVIERVILLE*   SUNNY     66  61  82 CALM      30.17R
KNOXVILLE      CLOUDY    66  57  72 NW6       30.18R
LAFOLLETTE*    SUNNY     64  55  72 SW5       30.23R
OAK RIDGE      CLOUDY    65  60  84 CALM      30.20R
CROSSVILLE     CLOUDY    60  54  80 N3        30.24R
NASHVILLE      CLOUDY    66  57  72 VRB3      30.22R
$$

...KEY TO REMARKS...
VSB - VISIBILITY IN MILES
WCI - WIND CHILL INDEX
HX  - HEAT INDEX

$$




USA.gov is the U.S. government's official web portal to all federal, state and local government web resources and services.